Weather History for Russell, KS

Change the Weather History Date:

Friday, February 22, 2013

  Actual Average Record
Temperature  
Mean Temperature 13 °F -  
Max Temperature 21 °F 48 °F 77 °F (1982)
Min Temperature 5 °F 25 °F 5 °F (2013)
Degree Days  
Heating Degree Days 52    
Moisture  
Dew Point 8 °F    
Average Humidity 82    
Maximum Humidity 92    
Minimum Humidity 68    
Precipitation  
Precipitation 0.00 in - - ()
Sea Level Pressure  
Sea Level Pressure 30.11 in    
Wind  
Wind Speed 11 mph (West)    
Max Wind Speed 15 mph    
Max Gust Speed -    
Visibility 10 miles    
Events Snow    
Averages and records for this station are not official NWS values.
T = Trace of Precipitation, MM = Missing Value Source: NWS Daily Summary

Daily Weather History Graph

Daily Weather History Graph

Search for Another Location

Airport:

Trip Planner

Search our weather history database for the weather conditions in past years. The results will help you decide how hot, cold, wet, or windy it might be!

Date:

Astronomy

Feb. 22, 2013 Rise Set
Actual Time 7:17 AM CST 6:20 PM CST
Civil Twilight 6:50 AM CST 6:47 PM CST
Nautical Twilight 6:19 AM CST 7:18 PM CST
Astronomical Twilight 5:48 AM CST 7:49 PM CST
Moon 3:34 PM CST (2/22) 5:02 AM CST (2/22)
Length of Visible Light 11h 57m
Length of Day
11h 03m
Waxing Gibbous, 90% of the Moon is Illuminated
Feb 22
Waxing Gibbous
Feb 25
Full
Mar 4
Last Quarter
Mar 11
New
Mar 19
First Quarter

Hourly Weather History & Observations

Time (CST) Temp. Windchill Dew Point Humidity Pressure Visibility Wind Dir Wind Speed Gust Speed Precip Events Conditions
12:53 AM 12.0 °F -4.0 °F 9.0 °F 88% 29.99 in 10.0 mi NW 15.0 mph - N/A   Mostly Cloudy
1:53 AM 10.9 °F -4.1 °F 8.1 °F 88% 30.01 in 10.0 mi NW 12.7 mph - N/A   Partly Cloudy
2:53 AM 8.1 °F -7.0 °F 5.0 °F 87% 30.03 in 10.0 mi West 11.5 mph - 0.00 in Snow Light Snow
3:53 AM 10.9 °F -4.1 °F 7.0 °F 84% 30.04 in 10.0 mi WNW 12.7 mph - 0.00 in   Clear
4:53 AM 8.1 °F -6.2 °F 5.0 °F 87% 30.04 in 10.0 mi WNW 10.4 mph - N/A   Clear
5:53 AM 7.0 °F -9.1 °F 3.9 °F 87% 30.06 in 10.0 mi WNW 12.7 mph - N/A   Clear
6:53 AM 8.1 °F -9.0 °F 3.9 °F 83% 30.07 in 10.0 mi NW 15.0 mph - N/A   Clear
7:53 AM 5.0 °F -9.1 °F 1.0 °F 84% 30.09 in 10.0 mi WNW 9.2 mph - N/A   Clear
8:53 AM 10.0 °F -3.7 °F 3.9 °F 76% 30.13 in 10.0 mi West 10.4 mph - N/A   Clear
9:53 AM 14.0 °F -0.2 °F 8.1 °F 77% 30.13 in 10.0 mi NW 12.7 mph - N/A   Clear
10:53 AM 15.1 °F 5.2 °F 9.0 °F 77% 30.15 in 10.0 mi West 6.9 mph - N/A   Clear
11:53 AM 17.1 °F - 10.9 °F 77% 30.16 in 10.0 mi North - - N/A   Clear
12:53 PM 19.0 °F 6.8 °F 12.0 °F 74% 30.16 in 10.0 mi West 11.5 mph - N/A   Clear
1:53 PM 19.9 °F 8.6 °F 12.9 °F 74% 30.14 in 10.0 mi West 10.4 mph - N/A   Clear
2:53 PM 21.9 °F 13.4 °F 12.9 °F 68% 30.13 in 10.0 mi WNW 6.9 mph - N/A   Clear
3:53 PM 21.0 °F 9.9 °F 14.0 °F 74% 30.12 in 10.0 mi West 10.4 mph - N/A   Clear
4:53 PM 21.0 °F 10.6 °F 12.9 °F 71% 30.12 in 10.0 mi West 9.2 mph - N/A   Clear
5:53 PM 17.1 °F 8.7 °F 12.0 °F 81% 30.12 in 10.0 mi WSW 5.8 mph - N/A   Clear
6:53 PM 12.9 °F 1.6 °F 9.0 °F 84% 30.14 in 10.0 mi WSW 8.1 mph - N/A   Clear
7:53 PM 10.9 °F -0.8 °F 8.1 °F 88% 30.16 in 9.0 mi WSW 8.1 mph - N/A   Clear
8:53 PM 10.0 °F 0.4 °F 8.1 °F 92% 30.15 in 8.0 mi WSW 5.8 mph - N/A   Clear
9:53 PM 6.1 °F -5.6 °F 3.0 °F 87% 30.15 in 8.0 mi SSW 6.9 mph - N/A   Clear
10:53 PM 8.1 °F -4.3 °F 5.0 °F 87% 30.14 in 10.0 mi WSW 8.1 mph - N/A   Clear
11:53 PM 6.1 °F -6.8 °F 3.0 °F 87% 30.13 in 10.0 mi SW 8.1 mph - N/A   Clear